| time (UTC) | temp F | wind direction | speed knots | gust knots | rain 1hr in | rain 24hr in | rain mn in | humidity % | barometer mb |
| 20260510143709 | 64 | 322 | 6.1 | 7.8 | 0.00 | 0.00 | 0.00 | 72 | 1019.0 |
| 20260510143206 | 64 | 23 | 6.1 | 8.7 | 0.00 | 0.00 | 0.00 | 73 | 1018.9 |
| 20260510142702 | 64 | 336 | 6.1 | 7.8 | 0.00 | 0.00 | 0.00 | 73 | 1018.9 |
| 20260510142159 | 64 | 34 | 4.3 | 5.2 | 0.00 | 0.00 | 0.00 | 74 | 1018.7 |
| 20260510141656 | 63 | 342 | 5.2 | 8.7 | 0.00 | 0.00 | 0.00 | 75 | 1018.7 |
| 20260510141154 | 63 | 318 | 3.5 | 4.3 | 0.00 | 0.00 | 0.00 | 75 | 1018.7 |
| 20260510140650 | 63 | 351 | 7.0 | 8.7 | 0.00 | 0.00 | 0.00 | 75 | 1018.5 |
| 20260510140149 | 63 | 343 | 4.3 | 5.2 | 0.00 | 0.00 | 0.00 | 76 | 1018.4 |
| 20260510135644 | 62 | 351 | 7.8 | 8.7 | 0.00 | 0.00 | 0.00 | 76 | 1018.4 |
| 20260510135141 | 63 | 339 | 7.0 | 7.8 | 0.00 | 0.00 | 0.00 | 75 | 1018.6 |
| 20260510134638 | 63 | 17 | 5.2 | 7.0 | 0.00 | 0.00 | 0.00 | 76 | 1018.3 |
| 20260510134135 | 63 | 12 | 3.5 | 4.3 | 0.00 | 0.00 | 0.00 | 77 | 1018.5 |
| 20260510133632 | 62 | 346 | 4.3 | 5.2 | 0.00 | 0.00 | 0.00 | 78 | 1018.1 |
| 20260510133127 | 62 | 2 | 6.1 | 7.8 | 0.00 | 0.00 | 0.00 | 78 | 1017.9 |
| 20260510132624 | 62 | 248 | 3.5 | 4.3 | 0.00 | 0.00 | 0.00 | 78 | 1017.6 |
| 20260510132121 | 62 | 328 | 7.0 | 7.8 | 0.00 | 0.00 | 0.00 | 79 | 1017.7 |
| 20260510131619 | 61 | 285 | 6.1 | 7.8 | 0.00 | 0.00 | 0.00 | 81 | 1017.6 |
| 20260510131116 | 61 | 329 | 4.3 | 5.2 | 0.00 | 0.00 | 0.00 | 82 | 1017.8 |
| 20260510130612 | 61 | 7 | 4.3 | 6.1 | 0.00 | 0.00 | 0.00 | 84 | 1017.7 |
| 20260510130110 | 61 | 286 | 5.2 | 6.1 | 0.00 | 0.00 | 0.00 | 84 | 1017.6 |
| 20260510125606 | 61 | 323 | 6.1 | 8.7 | 0.00 | 0.00 | 0.00 | 85 | 1017.7 |
| 20260510125102 | 60 | 237 | 2.6 | 2.6 | 0.00 | 0.00 | 0.00 | 86 | 1017.6 |
| 20260510124559 | 60 | 276 | 6.1 | 7.8 | 0.00 | 0.00 | 0.00 | 86 | 1017.7 |
| 20260510124056 | 60 | 18 | 2.6 | 2.6 | 0.00 | 0.00 | 0.00 | 87 | 1017.8 |
| 20260510123551 | 59 | 273 | 1.7 | 1.7 | 0.00 | 0.00 | 0.00 | 87 | 1017.7 |
| 20260510123047 | 58 | 221 | 0.9 | 1.7 | 0.00 | 0.00 | 0.00 | 88 | 1017.6 |
| 20260510122543 | 57 | 214 | 0.0 | 0.9 | 0.00 | 0.00 | 0.00 | 88 | 1017.4 |
| 20260510122040 | 57 | 192 | 0.9 | 0.9 | 0.00 | 0.00 | 0.00 | 89 | 1017.3 |
| 20260510121537 | 56 | 221 | 0.0 | 0.0 | 0.00 | 0.00 | 0.00 | 90 | 1017.3 |
| 20260510121034 | 56 | 224 | 0.0 | 0.0 | 0.00 | 0.00 | 0.00 | 91 | 1016.9 |
| 20260510120531 | 56 | 219 | 0.0 | 0.0 | 0.00 | 0.00 | 0.00 | 91 | 1016.9 |
| 20260510120027 | 56 | 206 | 0.0 | 0.0 | 0.00 | 0.00 | 0.00 | 91 | 1017.0 |
| 20260510115524 | 55 | 206 | 0.0 | 0.0 | 0.00 | 0.00 | 0.00 | 91 | 1016.6 |
| 20260510115021 | 55 | 206 | 0.0 | 0.0 | 0.00 | 0.00 | 0.00 | 91 | 1016.7 |
| 20260510114517 | 54 | 206 | 0.0 | 0.0 | 0.00 | 0.00 | 0.00 | 91 | 1016.9 |
| 20260510114013 | 54 | 205 | 0.0 | 0.9 | 0.00 | 0.00 | 0.00 | 91 | 1016.7 |
| 20260510113508 | 54 | 210 | 0.0 | 0.0 | 0.00 | 0.00 | 0.00 | 92 | 1016.7 |
| 20260510113006 | 54 | 211 | 0.0 | 0.0 | 0.00 | 0.00 | 0.00 | 92 | 1016.7 |
| 20260510112502 | 55 | 206 | 0.9 | 0.9 | 0.00 | 0.00 | 0.00 | 91 | 1016.7 |
| 20260510111958 | 55 | 198 | 0.0 | 0.0 | 0.00 | 0.00 | 0.00 | 92 | 1016.4 |
| 20260510111454 | 54 | 212 | 0.0 | 0.0 | 0.00 | 0.00 | 0.00 | 91 | 1016.3 |
| 20260510110951 | 54 | 219 | 0.0 | 0.0 | 0.00 | 0.00 | 0.00 | 91 | 1016.1 |
| 20260510110447 | 55 | 225 | 0.0 | 0.0 | 0.00 | 0.00 | 0.00 | 90 | 1016.4 |
| 20260510105938 | 54 | 212 | 0.0 | 0.0 | 0.00 | 0.00 | 0.00 | 90 | 1016.0 |
| 20260510105433 | 55 | 215 | 0.0 | 0.0 | 0.00 | 0.00 | 0.00 | 90 | 1016.0 |
| 20260510104929 | 55 | 215 | 0.0 | 0.0 | 0.00 | 0.00 | 0.00 | 90 | 1015.9 |
| 20260510104425 | 55 | 215 | 0.0 | 0.0 | 0.00 | 0.00 | 0.00 | 89 | 1015.8 |
| 20260510103922 | 55 | 215 | 0.0 | 0.0 | 0.00 | 0.00 | 0.00 | 89 | 1015.8 |
| 20260510103420 | 55 | 215 | 0.0 | 0.0 | 0.00 | 0.00 | 0.00 | 89 | 1015.7 |
| 20260510102919 | 55 | 226 | 0.0 | 0.0 | 0.00 | 0.00 | 0.00 | 89 | 1015.6 |
| 20260510102416 | 55 | 226 | 0.0 | 0.9 | 0.00 | 0.00 | 0.00 | 89 | 1015.8 |
| 20260510101914 | 56 | 226 | 0.0 | 0.0 | 0.00 | 0.00 | 0.00 | 89 | 1015.6 |
| 20260510101412 | 55 | 250 | 0.9 | 0.9 | 0.00 | 0.00 | 0.00 | 88 | 1015.5 |
| 20260510100909 | 55 | 217 | 0.0 | 0.9 | 0.00 | 0.00 | 0.00 | 88 | 1015.4 |
| 20260510100406 | 55 | 216 | 0.0 | 0.0 | 0.00 | 0.00 | 0.00 | 88 | 1015.4 |
| 20260510095902 | 55 | 207 | 0.9 | 0.9 | 0.00 | 0.00 | 0.00 | 87 | 1015.3 |
| 20260510095357 | 55 | 215 | 0.9 | 0.9 | 0.00 | 0.00 | 0.00 | 88 | 1015.4 |
| 20260510094856 | 55 | 205 | 0.9 | 0.9 | 0.00 | 0.00 | 0.00 | 89 | 1015.4 |
| 20260510094352 | 55 | 220 | 0.9 | 0.9 | 0.00 | 0.00 | 0.00 | 89 | 1015.4 |
| 20260510093848 | 55 | 161 | 0.9 | 1.7 | 0.00 | 0.00 | 0.00 | 89 | 1015.3 |
| 20260510093344 | 54 | 244 | 0.9 | 0.9 | 0.00 | 0.00 | 0.00 | 89 | 1015.1 |
| 20260510092840 | 54 | 226 | 0.0 | 0.0 | 0.00 | 0.00 | 0.00 | 89 | 1015.0 |
| 20260510092337 | 55 | 222 | 0.9 | 0.9 | 0.00 | 0.00 | 0.00 | 89 | 1014.9 |
| 20260510091832 | 55 | 207 | 0.0 | 0.0 | 0.00 | 0.00 | 0.00 | 89 | 1014.8 |
| 20260510091330 | 55 | 223 | 0.0 | 0.0 | 0.00 | 0.00 | 0.00 | 89 | 1014.6 |
| 20260510090826 | 54 | 223 | 0.0 | 0.9 | 0.00 | 0.00 | 0.00 | 89 | 1014.6 |
| 20260510090323 | 54 | 223 | 0.0 | 0.0 | 0.00 | 0.00 | 0.00 | 89 | 1014.6 |
| 20260510085818 | 54 | 223 | 0.0 | 0.9 | 0.00 | 0.00 | 0.00 | 89 | 1014.7 |
| 20260510085313 | 54 | 220 | 0.9 | 0.9 | 0.00 | 0.00 | 0.00 | 88 | 1014.6 |
| 20260510084809 | 54 | 212 | 0.0 | 0.9 | 0.00 | 0.00 | 0.00 | 88 | 1014.4 |
| 20260510084306 | 54 | 193 | 2.6 | 2.6 | 0.00 | 0.00 | 0.00 | 87 | 1014.6 |
| 20260510083803 | 54 | 214 | 0.9 | 0.9 | 0.00 | 0.00 | 0.00 | 88 | 1014.9 |
| 20260510083300 | 54 | 206 | 0.9 | 0.9 | 0.00 | 0.00 | 0.00 | 87 | 1014.7 |
| 20260510082755 | 55 | 185 | 0.9 | 0.9 | 0.00 | 0.00 | 0.00 | 87 | 1015.0 |
| 20260510082252 | 54 | 206 | 0.9 | 0.9 | 0.00 | 0.00 | 0.00 | 87 | 1014.9 |
| 20260510081750 | 54 | 215 | 0.9 | 0.9 | 0.00 | 0.00 | 0.00 | 87 | 1014.8 |
| 20260510081247 | 54 | 209 | 0.9 | 0.9 | 0.00 | 0.00 | 0.00 | 87 | 1014.9 |
| 20260510080743 | 55 | 202 | 0.0 | 0.0 | 0.00 | 0.00 | 0.00 | 86 | 1014.9 |
| 20260510080238 | 55 | 213 | 0.0 | 0.0 | 0.00 | 0.00 | 0.00 | 86 | 1014.9 |
| 20260510075736 | 55 | 212 | 0.9 | 0.9 | 0.00 | 0.00 | 0.00 | 85 | 1014.6 |
| 20260510075233 | 55 | 203 | 1.7 | 1.7 | 0.00 | 0.00 | 0.00 | 84 | 1014.9 |
| 20260510074730 | 55 | 208 | 0.0 | 0.9 | 0.00 | 0.00 | 0.00 | 84 | 1014.7 |
| 20260510074226 | 55 | 223 | 0.9 | 0.9 | 0.00 | 0.00 | 0.00 | 86 | 1014.3 |
| 20260510073722 | 55 | 200 | 1.7 | 1.7 | 0.00 | 0.00 | 0.00 | 85 | 1014.7 |
| 20260510073218 | 55 | 218 | 0.0 | 0.0 | 0.00 | 0.00 | 0.00 | 84 | 1014.7 |
| 20260510072714 | 55 | 220 | 0.0 | 0.0 | 0.00 | 0.00 | 0.00 | 85 | 1014.4 |
| 20260510072211 | 56 | 178 | 2.6 | 2.6 | 0.00 | 0.00 | 0.00 | 83 | 1014.6 |
| 20260510071708 | 56 | 195 | 0.9 | 1.7 | 0.00 | 0.00 | 0.00 | 83 | 1014.8 |
| 20260510071205 | 56 | 223 | 0.0 | 0.0 | 0.00 | 0.00 | 0.00 | 82 | 1014.6 |
| 20260510070702 | 56 | 221 | 0.9 | 0.9 | 0.00 | 0.00 | 0.00 | 82 | 1014.4 |
| 20260510070159 | 57 | 196 | 0.9 | 1.7 | 0.00 | 0.00 | 0.00 | 82 | 1014.8 |
| 20260510065655 | 57 | 204 | 0.9 | 0.9 | 0.00 | 0.00 | 0.00 | 83 | 1015.0 |
| 20260510065151 | 57 | 195 | 0.9 | 0.9 | 0.00 | 0.00 | 0.00 | 84 | 1014.8 |
| 20260510064648 | 56 | 225 | 0.0 | 0.9 | 0.00 | 0.00 | 0.00 | 84 | 1014.8 |
| 20260510064144 | 56 | 230 | 0.9 | 0.9 | 0.00 | 0.00 | 0.00 | 85 | 1014.6 |
| 20260510063642 | 56 | 247 | 1.7 | 1.7 | 0.00 | 0.00 | 0.00 | 84 | 1014.4 |
| 20260510063138 | 58 | 223 | 0.9 | 0.9 | 0.00 | 0.00 | 0.00 | 80 | 1014.3 |
| 20260510062634 | 59 | 204 | 0.0 | 0.9 | 0.00 | 0.00 | 0.00 | 76 | 1014.3 |
| 20260510062131 | 59 | 206 | 1.7 | 1.7 | 0.00 | 0.00 | 0.00 | 76 | 1014.4 |
| 20260510061626 | 59 | 185 | 2.6 | 2.6 | 0.00 | 0.00 | 0.00 | 77 | 1014.1 |
| 20260510061124 | 58 | 199 | 1.7 | 1.7 | 0.00 | 0.00 | 0.00 | 79 | 1014.4 |
| 20260510060620 | 57 | 192 | 1.7 | 1.7 | 0.00 | 0.00 | 0.00 | 80 | 1014.3 |
| 20260510060116 | 57 | 199 | 1.7 | 1.7 | 0.00 | 0.00 | 0.00 | 81 | 1014.4 |
| 20260510055612 | 57 | 194 | 1.7 | 1.7 | 0.00 | 0.00 | 0.00 | 81 | 1014.3 |
| 20260510055110 | 57 | 199 | 0.9 | 0.9 | 0.00 | 0.00 | 0.00 | 82 | 1014.1 |
| 20260510054606 | 58 | 195 | 0.9 | 0.9 | 0.00 | 0.00 | 0.00 | 81 | 1014.0 |
| 20260510054101 | 56 | 208 | 0.9 | 0.9 | 0.00 | 0.00 | 0.00 | 82 | 1014.1 |
| 20260510053601 | 56 | 205 | 0.9 | 1.7 | 0.00 | 0.00 | 0.00 | 84 | 1014.1 |
| 20260510053058 | 56 | 204 | 1.7 | 1.7 | 0.00 | 0.00 | 0.00 | 84 | 1014.2 |
| 20260510052554 | 56 | 209 | 0.0 | 0.9 | 0.00 | 0.00 | 0.00 | 85 | 1014.0 |
| 20260510052050 | 56 | 201 | 0.9 | 1.7 | 0.00 | 0.00 | 0.00 | 84 | 1013.9 |
| 20260510051546 | 55 | 206 | 1.7 | 1.7 | 0.00 | 0.00 | 0.00 | 85 | 1014.2 |
| 20260510051043 | 55 | 216 | 0.9 | 0.9 | 0.00 | 0.00 | 0.00 | 86 | 1014.0 |
| 20260510050540 | 55 | 220 | 0.9 | 0.9 | 0.00 | 0.00 | 0.00 | 86 | 1014.3 |
| 20260510050037 | 55 | 212 | 0.9 | 0.9 | 0.00 | 0.00 | 0.00 | 87 | 1014.3 |
| 20260510045534 | 56 | 189 | 2.6 | 2.6 | 0.00 | 0.01 | 0.01 | 86 | 1014.3 |
| 20260510045030 | 55 | 212 | 0.9 | 0.9 | 0.00 | 0.01 | 0.01 | 87 | 1014.0 |
| 20260510044527 | 55 | 222 | 0.9 | 0.9 | 0.00 | 0.01 | 0.01 | 88 | 1013.8 |
| 20260510044025 | 55 | 224 | 0.9 | 0.9 | 0.00 | 0.01 | 0.01 | 87 | 1013.9 |
| 20260510043520 | 55 | 208 | 0.9 | 0.9 | 0.00 | 0.01 | 0.01 | 87 | 1013.9 |
| 20260510043015 | 56 | 232 | 0.9 | 1.7 | 0.00 | 0.01 | 0.01 | 86 | 1013.5 |
| 20260510042510 | 56 | 204 | 0.0 | 0.0 | 0.00 | 0.01 | 0.01 | 86 | 1013.6 |
| 20260510042005 | 56 | 204 | 0.0 | 0.0 | 0.00 | 0.01 | 0.01 | 86 | 1013.7 |
| 20260510041502 | 56 | 204 | 0.0 | 0.0 | 0.00 | 0.01 | 0.01 | 87 | 1013.7 |
| 20260510041000 | 56 | 204 | 0.0 | 0.0 | 0.00 | 0.01 | 0.01 | 87 | 1013.5 |
| 20260510040455 | 56 | 200 | 0.9 | 1.7 | 0.00 | 0.01 | 0.01 | 86 | 1013.6 |
| 20260510035946 | 56 | 191 | 1.7 | 1.7 | 0.00 | 0.01 | 0.01 | 86 | 1013.8 |
| 20260510035442 | 57 | 192 | 1.7 | 1.7 | 0.00 | 0.01 | 0.01 | 85 | 1013.8 |
| 20260510034937 | 57 | 208 | 0.0 | 0.9 | 0.00 | 0.01 | 0.01 | 86 | 1013.6 |
| 20260510034436 | 57 | 208 | 0.0 | 0.9 | 0.00 | 0.01 | 0.01 | 86 | 1013.6 |
| 20260510033932 | 58 | 208 | 0.9 | 0.9 | 0.00 | 0.01 | 0.01 | 85 | 1013.5 |
| 20260510033428 | 57 | 207 | 0.0 | 0.9 | 0.00 | 0.01 | 0.01 | 83 | 1013.5 |
| 20260510032925 | 58 | 206 | 0.0 | 0.0 | 0.00 | 0.01 | 0.01 | 83 | 1013.5 |
| 20260510032422 | 58 | 196 | 0.9 | 0.9 | 0.00 | 0.01 | 0.01 | 83 | 1013.4 |
| 20260510031917 | 58 | 194 | 1.7 | 1.7 | 0.00 | 0.01 | 0.01 | 83 | 1013.3 |
| 20260510031412 | 58 | 205 | 0.9 | 0.9 | 0.00 | 0.01 | 0.01 | 83 | 1013.3 |
| 20260510030907 | 58 | 207 | 0.0 | 0.0 | 0.00 | 0.01 | 0.01 | 83 | 1013.3 |
| 20260510030404 | 59 | 199 | 0.9 | 0.9 | 0.00 | 0.01 | 0.01 | 82 | 1013.6 |
| 20260510025901 | 59 | 198 | 1.7 | 1.7 | 0.00 | 0.01 | 0.01 | 81 | 1013.2 |
| 20260510025359 | 59 | 210 | 0.9 | 0.9 | 0.00 | 0.01 | 0.01 | 81 | 1013.3 |
| 20260510024856 | 60 | 202 | 0.9 | 0.9 | 0.00 | 0.01 | 0.01 | 81 | 1013.1 |
| 20260510024352 | 60 | 204 | 0.9 | 0.9 | 0.00 | 0.01 | 0.01 | 80 | 1013.2 |
| 20260510023848 | 60 | 204 | 0.0 | 0.9 | 0.00 | 0.01 | 0.01 | 79 | 1013.1 |
| 20260510023345 | 60 | 204 | 0.0 | 0.9 | 0.00 | 0.01 | 0.01 | 80 | 1012.7 |
| 20260510022843 | 60 | 204 | 0.9 | 0.9 | 0.00 | 0.01 | 0.01 | 80 | 1012.8 |
| 20260510022341 | 61 | 208 | 0.0 | 0.0 | 0.00 | 0.01 | 0.01 | 81 | 1012.4 |
| 20260510021840 | 61 | 207 | 0.0 | 0.0 | 0.00 | 0.01 | 0.01 | 79 | 1012.2 |
| 20260510021339 | 61 | 205 | 0.9 | 0.9 | 0.00 | 0.01 | 0.01 | 77 | 1012.3 |
| 20260510020835 | 62 | 203 | 0.9 | 0.9 | 0.00 | 0.01 | 0.01 | 76 | 1012.4 |
| 20260510020335 | 63 | 217 | 0.0 | 0.0 | 0.00 | 0.01 | 0.01 | 75 | 1012.1 |
| 20260510015831 | 63 | 219 | 0.0 | 0.0 | 0.00 | 0.01 | 0.01 | 73 | 1012.1 |
| 20260510015327 | 64 | 219 | 0.0 | 0.0 | 0.00 | 0.01 | 0.01 | 72 | 1012.2 |
| 20260510014822 | 64 | 219 | 0.0 | 0.0 | 0.00 | 0.01 | 0.01 | 72 | 1012.0 |
| 20260510014320 | 64 | 219 | 0.9 | 0.9 | 0.00 | 0.01 | 0.01 | 70 | 1012.0 |
| 20260510013816 | 65 | 219 | 0.9 | 0.9 | 0.00 | 0.01 | 0.01 | 71 | 1012.0 |
| 20260510013312 | 66 | 212 | 0.9 | 0.9 | 0.00 | 0.01 | 0.01 | 68 | 1011.7 |
| 20260510012807 | 67 | 217 | 0.0 | 0.9 | 0.00 | 0.01 | 0.01 | 63 | 1012.0 |
| 20260510012307 | 67 | 221 | 0.9 | 0.9 | 0.00 | 0.01 | 0.01 | 64 | 1011.6 |
| 20260510011801 | 67 | 223 | 0.9 | 0.9 | 0.00 | 0.01 | 0.01 | 63 | 1011.7 |
| 20260510011257 | 67 | 225 | 0.9 | 0.9 | 0.00 | 0.01 | 0.01 | 63 | 1011.4 |
| 20260510010754 | 68 | 213 | 0.9 | 0.9 | 0.00 | 0.01 | 0.01 | 62 | 1011.4 |
| 20260510010250 | 68 | 210 | 0.9 | 0.9 | 0.00 | 0.01 | 0.01 | 59 | 1011.2 |
| 20260510005747 | 68 | 223 | 0.9 | 0.9 | 0.00 | 0.01 | 0.01 | 62 | 1011.2 |
| 20260510005244 | 69 | 208 | 1.7 | 1.7 | 0.00 | 0.01 | 0.01 | 58 | 1011.2 |
| 20260510004742 | 70 | 189 | 1.7 | 1.7 | 0.00 | 0.01 | 0.01 | 56 | 1011.1 |
| 20260510004239 | 71 | 217 | 0.0 | 0.9 | 0.00 | 0.01 | 0.01 | 55 | 1011.0 |
| 20260510003736 | 72 | 214 | 0.9 | 0.9 | 0.00 | 0.01 | 0.01 | 55 | 1011.0 |
| 20260510003232 | 73 | 201 | 1.7 | 1.7 | 0.00 | 0.01 | 0.01 | 52 | 1010.9 |
| 20260510002731 | 74 | 207 | 0.9 | 1.7 | 0.00 | 0.01 | 0.01 | 52 | 1010.9 |
| 20260510002229 | 75 | 202 | 1.7 | 1.7 | 0.00 | 0.01 | 0.01 | 50 | 1011.1 |
| 20260510001725 | 76 | 198 | 1.7 | 1.7 | 0.00 | 0.01 | 0.01 | 47 | 1010.9 |
| 20260510001224 | 76 | 213 | 0.0 | 0.0 | 0.00 | 0.01 | 0.01 | 45 | 1010.8 |
| 20260510000720 | 76 | 214 | 0.0 | 0.0 | 0.00 | 0.01 | 0.01 | 39 | 1010.9 |
| 20260510000218 | 77 | 206 | 0.0 | 0.9 | 0.00 | 0.01 | 0.01 | 39 | 1011.0 |
| 20260509235714 | 78 | 212 | 0.0 | 0.9 | 0.00 | 0.01 | 0.01 | 36 | 1010.9 |
| 20260509235210 | 78 | 219 | 0.0 | 0.9 | 0.00 | 0.01 | 0.01 | 37 | 1010.9 |
| 20260509234706 | 80 | 228 | 2.6 | 2.6 | 0.00 | 0.01 | 0.01 | 37 | 1011.0 |
| 20260509234203 | 82 | 190 | 0.9 | 1.7 | 0.00 | 0.01 | 0.01 | 32 | 1010.9 |
| 20260509233702 | 82 | 219 | 0.9 | 0.9 | 0.00 | 0.01 | 0.01 | 32 | 1010.9 |
| 20260509233159 | 81 | 206 | 0.0 | 0.0 | 0.00 | 0.01 | 0.01 | 31 | 1010.8 |
| 20260509232655 | 81 | 252 | 1.7 | 1.7 | 0.00 | 0.01 | 0.01 | 32 | 1011.0 |
| 20260509232152 | 80 | 202 | 0.9 | 0.9 | 0.00 | 0.01 | 0.01 | 34 | 1010.8 |
| 20260509231648 | 81 | 213 | 0.0 | 0.9 | 0.00 | 0.01 | 0.01 | 31 | 1011.0 |
| 20260509231146 | 81 | 221 | 0.9 | 0.9 | 0.00 | 0.01 | 0.01 | 34 | 1011.0 |
| 20260509230643 | 81 | 208 | 0.9 | 0.9 | 0.00 | 0.01 | 0.01 | 32 | 1010.9 |
| 20260509230140 | 81 | 212 | 0.9 | 0.9 | 0.00 | 0.01 | 0.01 | 30 | 1011.0 |
| 20260509225635 | 80 | 221 | 0.9 | 0.9 | 0.00 | 0.01 | 0.01 | 33 | 1010.8 |
| 20260509225131 | 80 | 209 | 0.0 | 0.9 | 0.00 | 0.01 | 0.01 | 31 | 1010.9 |
| 20260509224627 | 81 | 217 | 1.7 | 1.7 | 0.00 | 0.01 | 0.01 | 30 | 1010.8 |
| 20260509224124 | 80 | 198 | 1.7 | 1.7 | 0.00 | 0.01 | 0.01 | 33 | 1010.8 |
| 20260509223621 | 81 | 150 | 1.7 | 1.7 | 0.00 | 0.01 | 0.01 | 33 | 1010.8 |
| 20260509223118 | 81 | 200 | 0.0 | 0.9 | 0.00 | 0.01 | 0.01 | 32 | 1011.0 |
| 20260509222614 | 80 | 205 | 0.9 | 1.7 | 0.00 | 0.01 | 0.01 | 30 | 1010.9 |
| 20260509222110 | 80 | 170 | 2.6 | 2.6 | 0.00 | 0.01 | 0.01 | 33 | 1010.8 |
| 20260509221606 | 81 | 156 | 4.3 | 6.1 | 0.00 | 0.01 | 0.01 | 31 | 1010.8 |
| 20260509221102 | 81 | 210 | 0.0 | 0.0 | 0.00 | 0.01 | 0.01 | 35 | 1010.6 |
| 20260509220558 | 81 | 183 | 0.0 | 0.9 | 0.00 | 0.01 | 0.01 | 30 | 1010.6 |
| 20260509220055 | 81 | 200 | 0.9 | 0.9 | 0.00 | 0.01 | 0.01 | 33 | 1010.8 |
| 20260509215550 | 80 | 209 | 1.7 | 2.6 | 0.00 | 0.01 | 0.01 | 34 | 1010.7 |
| 20260509215048 | 81 | 211 | 2.6 | 4.3 | 0.00 | 0.01 | 0.01 | 33 | 1010.7 |
| 20260509214545 | 80 | 150 | 5.2 | 5.2 | 0.00 | 0.01 | 0.01 | 31 | 1010.8 |
| 20260509214042 | 81 | 176 | 6.1 | 6.1 | 0.00 | 0.01 | 0.01 | 32 | 1010.7 |
| 20260509213538 | 81 | 209 | 0.9 | 1.7 | 0.00 | 0.01 | 0.01 | 29 | 1010.6 |
| 20260509213035 | 82 | 218 | 0.9 | 1.7 | 0.00 | 0.01 | 0.01 | 29 | 1010.6 |
| 20260509212532 | 84 | 221 | 0.9 | 1.7 | 0.00 | 0.01 | 0.01 | 37 | 1010.7 |
| 20260509212029 | 84 | 197 | 0.9 | 0.9 | 0.00 | 0.01 | 0.01 | 31 | 1010.8 |
| 20260509211524 | 84 | 215 | 1.7 | 2.6 | 0.00 | 0.01 | 0.01 | 31 | 1010.8 |
| 20260509211021 | 84 | 216 | 1.7 | 1.7 | 0.00 | 0.01 | 0.01 | 27 | 1010.7 |
| 20260509210518 | 84 | 222 | 1.7 | 2.6 | 0.00 | 0.01 | 0.01 | 33 | 1011.1 |
| 20260509210014 | 83 | 170 | 3.5 | 4.3 | 0.00 | 0.01 | 0.01 | 28 | 1011.2 |
| 20260509205509 | 85 | 224 | 0.0 | 0.9 | 0.00 | 0.01 | 0.01 | 30 | 1011.3 |
| 20260509205005 | 85 | 202 | 0.0 | 0.0 | 0.00 | 0.01 | 0.01 | 30 | 1011.1 |
| 20260509204501 | 85 | 220 | 0.9 | 0.9 | 0.00 | 0.01 | 0.01 | 30 | 1011.3 |
| 20260509203957 | 85 | 233 | 1.7 | 1.7 | 0.00 | 0.01 | 0.01 | 34 | 1011.0 |
| 20260509203453 | 84 | 177 | 0.9 | 0.9 | 0.00 | 0.01 | 0.01 | 32 | 1011.0 |
| 20260509202951 | 84 | 254 | 1.7 | 2.6 | 0.00 | 0.01 | 0.01 | 26 | 1011.2 |
| 20260509202447 | 86 | 223 | 0.9 | 1.7 | 0.00 | 0.01 | 0.01 | 30 | 1011.4 |
| 20260509201942 | 84 | 216 | 0.9 | 1.7 | 0.00 | 0.01 | 0.01 | 27 | 1011.7 |
| 20260509201437 | 85 | 194 | 0.9 | 0.9 | 0.00 | 0.01 | 0.01 | 28 | 1011.5 |
| 20260509200935 | 84 | 216 | 0.0 | 0.9 | 0.00 | 0.01 | 0.01 | 29 | 1011.7 |
| 20260509200434 | 85 | 263 | 0.9 | 0.9 | 0.00 | 0.01 | 0.01 | 28 | 1011.9 |
| 20260509195931 | 84 | 212 | 1.7 | 1.7 | 0.00 | 0.01 | 0.01 | 31 | 1011.7 |
| 20260509195427 | 84 | 47 | 1.7 | 2.6 | 0.00 | 0.01 | 0.01 | 27 | 1011.7 |
| 20260509194926 | 82 | 196 | 1.7 | 2.6 | 0.00 | 0.01 | 0.01 | 34 | 1011.6 |
| 20260509194422 | 81 | 184 | 1.7 | 2.6 | 0.00 | 0.01 | 0.01 | 30 | 1011.6 |
| 20260509193920 | 81 | 202 | 3.5 | 4.3 | 0.00 | 0.01 | 0.01 | 33 | 1011.6 |
| 20260509193419 | 84 | 182 | 6.1 | 6.1 | 0.00 | 0.01 | 0.01 | 31 | 1011.6 |
| 20260509192916 | 84 | 192 | 0.9 | 0.9 | 0.00 | 0.01 | 0.01 | 31 | 1011.6 |
| 20260509192412 | 85 | 153 | 3.5 | 5.2 | 0.00 | 0.01 | 0.01 | 31 | 1011.6 |
| 20260509191907 | 83 | 216 | 0.9 | 1.7 | 0.00 | 0.01 | 0.01 | 33 | 1011.6 |
| 20260509191403 | 82 | 205 | 2.6 | 2.6 | 0.00 | 0.01 | 0.01 | 36 | 1011.7 |
| 20260509190859 | 85 | 175 | 5.2 | 7.0 | 0.00 | 0.01 | 0.01 | 33 | 1011.7 |
| 20260509190356 | 84 | 150 | 1.7 | 1.7 | 0.00 | 0.01 | 0.01 | 31 | 1011.7 |
| 20260509185854 | 83 | 131 | 0.9 | 1.7 | 0.00 | 0.01 | 0.01 | 30 | 1011.3 |
| 20260509185350 | 83 | 184 | 7.8 | 8.7 | 0.00 | 0.01 | 0.01 | 30 | 1011.4 |
| 20260509184847 | 81 | 197 | 1.7 | 1.7 | 0.00 | 0.01 | 0.01 | 36 | 1011.5 |
| 20260509184344 | 84 | 237 | 3.5 | 4.3 | 0.00 | 0.01 | 0.01 | 32 | 1011.7 |
| 20260509183841 | 84 | 197 | 3.5 | 5.2 | 0.00 | 0.01 | 0.01 | 30 | 1011.7 |
| 20260509183336 | 83 | 178 | 0.9 | 0.9 | 0.00 | 0.01 | 0.01 | 32 | 1012.0 |
| 20260509182832 | 82 | 160 | 1.7 | 2.6 | 0.00 | 0.01 | 0.01 | 34 | 1011.5 |
| 20260509182330 | 82 | 84 | 0.9 | 0.9 | 0.00 | 0.01 | 0.01 | 33 | 1011.7 |
| 20260509181827 | 83 | 215 | 0.9 | 0.9 | 0.00 | 0.01 | 0.01 | 33 | 1011.7 |
| 20260509181324 | 82 | 206 | 0.0 | 0.9 | 0.00 | 0.01 | 0.01 | 34 | 1011.7 |
| 20260509180821 | 83 | 21 | 1.7 | 1.7 | 0.00 | 0.01 | 0.01 | 31 | 1012.0 |
| 20260509180317 | 83 | 215 | 0.0 | 0.9 | 0.00 | 0.01 | 0.01 | 34 | 1011.7 |
| 20260509175814 | 82 | 204 | 0.0 | 0.0 | 0.00 | 0.01 | 0.01 | 32 | 1011.9 |
| 20260509175310 | 83 | 142 | 0.9 | 0.9 | 0.00 | 0.01 | 0.01 | 30 | 1011.7 |
| 20260509174806 | 83 | 207 | 0.9 | 0.9 | 0.00 | 0.01 | 0.01 | 36 | 1011.7 |
| 20260509174302 | 82 | 234 | 0.9 | 0.9 | 0.00 | 0.01 | 0.01 | 33 | 1011.9 |
| 20260509173758 | 83 | 230 | 3.5 | 5.2 | 0.00 | 0.01 | 0.01 | 38 | 1011.9 |
| 20260509173254 | 82 | 222 | 1.7 | 1.7 | 0.00 | 0.01 | 0.01 | 35 | 1012.0 |
| 20260509172750 | 81 | 226 | 0.9 | 0.9 | 0.00 | 0.01 | 0.01 | 40 | 1012.2 |
| 20260509172247 | 83 | 121 | 2.6 | 4.3 | 0.00 | 0.01 | 0.01 | 32 | 1012.2 |
| 20260509171742 | 82 | 191 | 3.5 | 6.1 | 0.00 | 0.01 | 0.01 | 37 | 1012.0 |
| 20260509171239 | 80 | 206 | 2.6 | 4.3 | 0.00 | 0.01 | 0.01 | 42 | 1012.2 |
| 20260509170736 | 80 | 217 | 0.9 | 1.7 | 0.00 | 0.01 | 0.01 | 38 | 1012.0 |
| 20260509170232 | 80 | 210 | 2.6 | 4.3 | 0.00 | 0.01 | 0.01 | 40 | 1012.1 |
| 20260509165730 | 80 | 236 | 3.5 | 5.2 | 0.00 | 0.01 | 0.01 | 39 | 1012.0 |
| 20260509165225 | 81 | 214 | 6.1 | 7.8 | 0.00 | 0.01 | 0.01 | 42 | 1012.0 |
| 20260509164722 | 82 | 181 | 0.9 | 0.9 | 0.00 | 0.01 | 0.01 | 38 | 1012.0 |
| 20260509164217 | 82 | 193 | 0.9 | 1.7 | 0.00 | 0.01 | 0.01 | 39 | 1011.9 |
| 20260509163715 | 80 | 150 | 2.6 | 2.6 | 0.00 | 0.01 | 0.01 | 42 | 1012.1 |
| 20260509163212 | 81 | 197 | 0.0 | 0.9 | 0.00 | 0.01 | 0.01 | 43 | 1012.3 |
| 20260509162709 | 79 | 238 | 1.7 | 2.6 | 0.00 | 0.01 | 0.01 | 45 | 1012.0 |
| 20260509162204 | 79 | 224 | 4.3 | 6.1 | 0.00 | 0.01 | 0.01 | 44 | 1012.1 |
| 20260509161700 | 79 | 187 | 2.6 | 4.3 | 0.00 | 0.01 | 0.01 | 42 | 1011.9 |
| 20260509161156 | 79 | 234 | 2.6 | 2.6 | 0.00 | 0.01 | 0.01 | 41 | 1012.0 |
| 20260509160652 | 79 | 164 | 0.0 | 0.9 | 0.00 | 0.01 | 0.01 | 43 | 1012.1 |
| 20260509160148 | 79 | 158 | 0.0 | 0.9 | 0.00 | 0.01 | 0.01 | 43 | 1012.1 |
| 20260509155644 | 78 | 218 | 0.0 | 0.9 | 0.00 | 0.01 | 0.01 | 48 | 1012.0 |
| 20260509155140 | 78 | 204 | 0.0 | 0.0 | 0.00 | 0.01 | 0.01 | 47 | 1012.1 |
| 20260509154636 | 76 | 232 | 0.9 | 1.7 | 0.00 | 0.01 | 0.01 | 51 | 1012.0 |
| 20260509154133 | 78 | 182 | 0.0 | 0.9 | 0.00 | 0.01 | 0.01 | 47 | 1012.4 |
| 20260509153630 | 76 | 215 | 1.7 | 1.7 | 0.00 | 0.01 | 0.01 | 54 | 1012.0 |
| 20260509153127 | 76 | 222 | 0.9 | 1.7 | 0.00 | 0.01 | 0.01 | 51 | 1012.2 |
| 20260509152622 | 77 | 204 | 0.0 | 0.0 | 0.00 | 0.01 | 0.01 | 50 | 1012.1 |
| 20260509152120 | 75 | 214 | 1.7 | 1.7 | 0.00 | 0.01 | 0.01 | 54 | 1011.9 |
| 20260509151616 | 75 | 252 | 0.9 | 0.9 | 0.00 | 0.01 | 0.01 | 54 | 1012.2 |
| 20260509151114 | 74 | 199 | 1.7 | 1.7 | 0.00 | 0.01 | 0.01 | 58 | 1012.0 |
| 20260509150612 | 74 | 185 | 2.6 | 4.3 | 0.00 | 0.01 | 0.01 | 58 | 1012.0 |
| 20260509150110 | 73 | 196 | 0.0 | 0.9 | 0.00 | 0.01 | 0.01 | 62 | 1012.2 |
| 20260509145605 | 72 | 212 | 2.6 | 2.6 | 0.00 | 0.01 | 0.01 | 61 | 1012.2 |
| 20260509145101 | 70 | 214 | 1.7 | 1.7 | 0.00 | 0.01 | 0.01 | 66 | 1012.0 |
| 20260509144558 | 69 | 216 | 0.9 | 1.7 | 0.00 | 0.01 | 0.01 | 67 | 1011.9 |